Temperature
17 17 17 17 17 17 17 17 17 17 17 17 17 17 16 17 17 17 17 17 17 17 17 17 17 17 17 17 17 17 18 18 18 18 18 18 18 18 18 18 18 18 18
17 17 17 17 17 17 17 16 16 16 16 16 16 16 16 16 16 16 17 17 17 17 17 17 17 17 17 17 17 17 17 18 18 18 18 18 18 18 18 18 18 18 18
17 17 17 17 17 16 16 16 16 16 16 16 16 16 16 16 16 16 16 16 17 17 17 17 17 17 17 17 17 17 17 17 17 17 17 17 18 18 18 18 18 18 18
17 17 17 17 17 16 16 16 16 16 16 16 16 16 16 16 16 16 16 16 16 16 16 17 17 17 17 17 17 17 17 17 17 17 17 17 17 18 18 18 18 18 18
17 17 17 17 16 16 16 16 16 16 16 16 16 16 16 16 16 16 16 16 16 16 16 16 16 17 16 17 17 17 17 17 17 17 17 17 17 17 18 18 18 18 18
17 17 17 17 17 16 16 16 16 16 16 16 16 16 16 16 16 16 16 16 16 16 16 16 16 16 16 17 17 17 17 17 17 17 17 17 17 17 18 18 18 18 18
17 17 17 17 17 17 16 16 16 16 16 16 16 16 16 16 16 16 16 16 16 16 16 16 16 16 16 16 17 17 17 17 17 17 17 17 17 17 17 18 18 18 18
18 18 17 17 17 17 16 16 16 16 16 16 16 16 16 16 16 16 16 16 16 16 16 16 16 16 16 17 17 17 17 17 17 17 17 17 17 17 17 17 18 18 18
18 18 17 17 17 17 17 16 16 16 16 16 16 16 16 16 16 16 16 16 16 16 16 16 16 16 16 17 17 17 17 17 17 17 17 17 17 17 17 17 17 18 18
18 18 18 17 17 17 17 17 16 16 16 16 16 16 16 16 16 16 16 16 16 16 16 16 16 16 16 16 17 17 17 17 17 17 17 17 17 17 17 17 17 17 18
18 18 18 18 17 17 17 17 17 16 16 16 16 16 16 16 16 16 16 16 16 16 16 16 16 16 16 16 16 16 16 17 16 16 16 17 17 17 17 17 17 17 17
19 18 18 18 18 17 17 17 17 16 16 16 16 16 16 16 16 16 16 16 16 16 16 16 16 16 16 16 16 16 16 16 16 16 17 17 17 17 17 17 17 17 17
19 19 19 18 18 18 17 17 17 17 16 16 16 16 16 16 16 16 16 16 16 16 16 16 16 16 16 16 16 16 16 16 16 16 16 17 17 17 17 17 17 17 17
19 19 19 19 18 18 17 17 17 17 17 17 17 16 16 16 16 16 16 16 16 16 16 16 16 16 16 16 16 16 16 16 16 16 16 16 17 17 16 17 17 17 17
19 19 19 19 18 18 18 18 17 17 17 17 17 17 16 16 16 16 16 16 16 16 16 16 16 16 16 16 16 16 16 16 16 16 16 16 16 16 16 16 16 16 17
19 19 18 18 18 18 18 18 17 17 17 17 17 17 17 16 16 16 16 16 16 16 16 16 16 16 16 16 16 16 16 16 16 16 16 16 16 16 16 16 16 16 16
19 19 18 18 18 18 17 17 17 17 17 17 17 17 17 16 16 16 16 16 16 16 16 16 16 16 16 16 16 16 16 16 16 16 16 16 16 16 16 16 16 16 16
19 19 18 18 18 17 17 17 17 17 17 16 16 16 16 16 16 16 16 16 16 16 16 16 16 16 16 16 16 15 15 16 15 15 15 15 15 15 16 16 16 16 16
19 19 18 18 18 17 17 17 17 17 16 16 16 16 16 16 16 16 16 16 16 16 16 16 16 15 16 15 15 15 15 15 15 15 15 15 15 15 15 15 15 16 16
19 19 18 18 18 17 17 17 17 16 16 16 16 16 16 16 16 16 16 16 16 16 16 16 15 15 15 15 15 15 15 15 15 15 15 15 15 15 15 15 15 15 15
19 19 18 18 18 17 17 17 16 16 16 16 16 16 16 16 16 16 16 16 15 15 15 15 15 15 15 15 15 15 15 15 15 15 15 15 15 15 15 15 15 15 15
19 19 18 18 18 17 17 17 17 16 16 16 16 16 16 16 16 16 16 15 15 15 15 15 15 15 15 15 15 15 15 15 15 15 15 15 14 14 14 14 14 15 15
19 19 19 18 18 17 17 17 17 16 16 16 16 16 16 16 16 16 15 15 15 15 15 15 15 15 15 15 15 15 15 15 14 14 14 14 14 14 14 14 14 14 15
19 19 19 18 18 17 17 17 17 16 16 16 16 16 16 16 16 15 15 15 15 15 15 15 15 15 15 15 15 15 15 15 15 14 14 14 14 14 14 14 14 14 14
19 19 18 18 18 17 17 17 17 16 16 16 16 16 16 16 15 15 15 15 15 15 15 15 15 15 15 15 15 15 15 15 15 15 14 14 14 14 14 14 14 14 14
19 18 18 18 18 17 17 17 17 16 16 16 16 16 16 16 16 15 15 15 15 15 15 15 15 15 15 15 15 15 15 15 15 15 15 14 14 14 14 14 14 14 14
Wind_Speed
9 12 12 13 13 14 14 14 14 13 13 12 12 12 11 11 11 11 10 10 10 9 9 9 9 8 8 8 8 8 8 8 7 7 7 9 9 9 9 9 8 8 9
12 14 13 13 14 14 14 14 13 13 13 12 12 11 11 11 10 10 10 9 9 9 8 8 8 8 8 8 8 8 8 6 5 5 6 7 8 8 9 10 10 9 10
13 15 14 14 14 13 13 13 12 12 12 11 11 11 10 10 9 9 9 9 8 8 8 8 8 8 8 8 7 7 7 6 5 3 3 4 6 8 9 10 10 10 10
14 15 14 14 13 13 13 12 12 11 11 11 10 9 9 9 9 9 8 8 8 8 8 7 7 8 8 8 7 6 5 5 4 4 3 5 7 10 10 10 9 9 9
14 15 14 13 13 12 12 12 11 11 10 10 10 9 9 9 9 8 8 8 8 7 7 7 7 7 7 7 7 6 5 5 5 4 6 9 10 10 10 10 9 9 9
13 15 13 12 12 12 11 11 10 10 10 10 9 9 8 8 8 8 7 8 8 7 7 7 6 6 6 6 6 5 5 5 4 5 7 9 9 10 10 9 9 9 9
12 14 14 12 11 10 10 10 9 9 9 9 8 8 8 8 8 8 7 7 7 7 7 6 6 6 6 5 5 5 6 5 2 5 7 9 10 10 9 9 9 8 8
11 13 13 13 11 10 10 9 9 9 8 8 7 6 6 6 6 7 7 7 6 6 6 6 6 5 5 5 4 4 6 6 4 6 8 9 10 10 9 9 8 8 7
9 10 11 12 12 11 11 10 9 7 6 5 4 4 3 3 5 6 7 7 6 6 6 6 6 5 5 4 3 4 4 5 5 5 8 10 10 9 8 8 8 7 6
7 7 8 10 11 12 12 10 8 7 5 3 2 1 1 2 4 6 6 6 6 5 5 5 5 5 4 3 2 3 4 5 5 8 11 10 10 9 8 8 7 6 6
6 6 6 6 8 9 10 9 9 7 4 3 3 3 2 3 6 7 8 6 5 4 4 3 3 3 3 2 2 2 3 4 7 11 11 11 10 9 8 8 8 7 6
6 6 6 6 6 7 7 7 5 5 4 2 3 3 3 5 7 7 8 6 4 3 3 2 2 2 2 2 2 1 2 5 8 11 11 12 11 10 9 9 9 9 8
6 6 6 6 6 6 5 5 4 4 3 5 4 6 6 5 5 5 5 6 4 3 1 2 2 1 2 4 4 4 5 8 10 11 11 12 12 11 10 10 10 11 11
6 5 5 6 6 7 6 3 4 3 4 4 4 6 6 3 3 3 3 3 3 3 3 3 2 4 5 6 7 7 8 9 10 11 12 13 13 12 12 12 12 12 12
7 6 6 6 7 6 4 1 5 4 3 5 4 5 6 2 2 2 3 4 5 5 3 3 4 6 6 7 8 8 8 10 11 12 11 13 14 14 14 14 14 14 14
7 7 6 6 5 5 3 3 3 4 4 6 4 5 6 5 4 3 3 3 4 5 5 4 5 5 4 6 7 8 8 9 10 11 11 12 15 15 15 15 15 15 15
7 8 6 6 7 6 5 4 4 4 6 5 5 6 7 7 7 5 3 3 4 6 6 6 6 5 5 6 6 7 7 8 8 10 10 10 12 15 16 16 16 16 16
7 9 6 6 7 7 5 4 4 7 6 5 7 9 8 8 8 6 3 2 5 6 5 4 4 5 5 5 5 5 5 6 8 9 10 10 11 11 13 16 17 17 17
7 8 7 5 6 6 4 3 5 6 5 7 9 9 9 9 9 7 3 4 7 5 4 5 5 4 4 4 5 5 5 5 6 9 9 10 11 12 12 14 16 17 18
6 8 8 6 5 5 3 4 4 4 4 7 7 8 9 8 8 7 4 5 7 4 4 4 4 4 4 4 6 6 5 5 5 6 7 9 10 11 11 11 11 14 17
5 7 8 6 5 5 3 3 3 3 4 4 5 8 8 8 8 7 4 5 5 5 4 5 4 4 3 3 4 4 5 5 6 5 5 6 8 11 12 12 11 11 12
4 6 7 6 6 6 3 3 3 3 4 4 4 6 8 9 9 6 4 4 4 4 5 4 4 2 2 2 2 2 2 3 5 5 5 5 6 8 10 12 13 13 12
5 5 6 6 7 6 4 3 4 3 3 3 4 4 5 8 9 8 6 4 3 4 4 3 3 3 2 2 2 2 2 2 1 3 5 5 5 4 5 9 12 13 14
6 6 6 6 7 6 5 3 3 3 3 4 3 3 3 7 7 7 6 5 4 4 3 2 3 2 2 2 2 2 3 3 2 2 3 4 5 6 5 7 10 12 14
6 6 5 6 6 6 5 5 2 3 3 3 4 4 4 4 4 5 5 5 4 4 4 5 4 4 2 2 2 2 2 2 2 3 2 2 3 4 4 5 8 10 12
7 6 5 6 6 5 4 5 3 4 4 4 4 3 3 3 2 4 4 5 5 4 4 4 4 4 4 4 3 2 2 2 2 2 2 2 2 2 3 4 5 7 10
Wind_Direction
97 92 86 82 81 81 79 77 76 75 74 72 71 70 69 69 67 66 66 65 65 64 62 59 58 59 56 53 56 60 60 60 60 66 72 74 72 70 60 53 60 66 67
103 98 90 85 83 82 80 78 76 74 72 71 70 69 69 69 68 65 64 63 63 63 60 58 57 58 58 56 58 58 58 57 56 66 79 80 77 74 66 62 65 67 65
106 104 92 86 85 83 81 79 76 72 71 70 70 67 66 65 63 62 62 59 59 62 59 57 57 57 55 55 56 56 51 48 42 51 66 81 88 82 72 67 69 70 66
102 96 93 89 87 83 79 75 72 70 69 68 68 66 64 62 59 60 60 57 57 61 62 60 59 60 59 57 54 53 42 30 28 27 51 77 80 84 77 70 68 68 67
100 100 98 93 89 86 81 77 72 68 67 67 66 65 64 62 60 58 57 57 59 63 62 61 61 63 64 58 52 46 33 17 14 35 60 71 79 84 76 68 65 66 64
107 107 106 100 92 87 82 76 71 67 64 64 65 65 65 63 60 60 57 57 60 63 60 58 60 65 66 61 51 34 18 9 11 60 71 76 81 85 78 68 63 61 62
113 115 116 112 105 96 87 78 73 71 68 67 67 66 63 62 61 61 60 58 58 58 58 58 60 67 68 65 53 28 3 352 23 82 79 81 82 83 77 69 63 60 60
116 118 124 128 123 111 97 87 80 76 73 71 70 70 69 70 70 67 64 61 60 59 60 62 67 73 75 67 51 28 9 4 41 85 91 86 87 81 76 71 64 60 57
114 123 135 142 137 124 111 102 95 90 89 87 88 84 81 84 85 79 73 69 65 65 68 72 76 84 83 73 50 21 5 16 18 55 84 86 85 81 76 70 63 58 56
126 130 132 136 138 138 132 126 124 122 118 122 143 160 183 178 122 98 89 84 78 78 80 85 91 96 93 81 48 13 2 23 42 64 72 81 79 75 74 69 60 53 53
121 128 124 123 125 130 133 131 148 150 145 170 195 230 225 176 134 113 97 102 95 97 104 114 123 134 122 107 62 28 22 63 73 74 69 76 73 71 71 67 56 51 53
130 128 127 128 123 110 100 117 134 113 117 116 81 60 76 74 86 105 123 126 125 130 146 162 192 202 178 150 135 68 65 81 81 78 70 70 67 69 70 66 58 56 54
109 107 117 118 108 107 98 98 90 91 90 58 42 61 47 64 96 112 145 157 162 172 200 155 193 167 133 97 98 87 72 78 81 78 71 69 65 65 67 65 62 59 54
103 100 97 106 106 93 79 96 98 69 70 62 30 64 59 43 55 65 71 87 100 82 48 58 70 60 67 73 74 71 66 77 86 87 75 70 65 63 66 67 65 61 57
112 98 74 68 83 92 87 34 88 73 57 73 30 64 72 57 54 66 75 55 56 65 58 48 57 56 44 48 61 63 64 75 85 89 83 75 71 68 66 65 64 63 59
120 107 95 86 82 91 95 72 72 83 72 62 33 58 65 60 55 63 74 66 66 63 59 63 73 73 59 53 51 54 53 67 82 94 95 81 74 71 67 64 62 60 58
125 111 94 89 75 63 54 46 69 61 66 59 28 41 60 57 54 50 53 52 71 68 62 58 65 72 74 67 56 56 51 54 72 83 90 92 81 72 69 65 61 58 55
113 104 98 90 87 74 59 34 56 57 52 55 41 28 41 59 66 52 43 45 75 77 70 62 63 66 67 66 59 54 51 45 57 69 75 79 84 80 72 68 62 57 54
115 116 116 97 95 90 94 74 55 66 54 51 50 32 28 40 59 61 37 32 60 62 57 69 59 67 80 80 78 64 53 45 44 57 65 67 77 84 80 70 66 59 54
124 124 113 108 105 105 82 78 67 50 54 54 52 43 28 35 48 57 53 47 56 60 60 72 71 63 71 74 81 71 60 59 52 47 53 58 63 75 78 76 70 62 55
134 127 126 135 120 100 77 76 82 75 68 58 56 47 32 33 43 53 51 54 57 62 68 78 75 76 72 92 90 75 55 54 66 55 48 53 55 56 62 64 60 61 57
143 125 131 126 115 101 84 88 90 84 87 84 62 50 41 37 34 48 55 66 66 65 63 71 74 66 60 65 88 106 96 41 38 51 55 54 53 50 52 58 57 56 55
148 136 132 127 118 108 102 74 74 68 66 84 80 59 46 50 38 30 42 61 79 86 79 77 88 76 59 31 54 80 105 101 76 25 51 62 56 46 47 54 55 56 55
153 142 132 126 119 115 112 99 111 116 100 94 96 98 77 64 53 34 35 46 63 76 80 71 83 67 72 52 23 30 78 127 127 101 35 53 60 54 49 53 52 55 56
146 137 135 124 112 112 118 113 96 87 92 92 90 96 94 77 69 51 43 46 61 70 69 63 60 43 53 62 55 41 44 55 85 115 109 63 53 49 52 58 59 57 56
136 136 131 122 115 119 127 127 122 106 99 101 100 98 104 101 71 64 58 54 55 64 60 60 72 57 53 51 48 52 58 64 75 90 112 115 91 62 62 61 66 65 63
Height
1532 1531 1531 1531 1531 1532 1532 1533 1533 1533 1533 1534 1534 1534 1534 1534 1534 1534 1534 1535 1535 1536 1536 1536 1537 1537 1537 1538 1538 1539 1539 1540 1541 1542 1542 1542 1542 1543 1543 1543 1543 1543 1543
1533 1532 1532 1532 1533 1533 1533 1534 1534 1535 1535 1535 1535 1535 1535 1535 1535 1535 1535 1536 1536 1536 1537 1537 1537 1538 1538 1539 1539 1540 1540 1541 1542 1542 1543 1543 1543 1544 1544 1544 1543 1544 1544
1534 1534 1533 1534 1534 1534 1535 1535 1536 1536 1536 1536 1536 1536 1536 1536 1536 1536 1536 1536 1537 1537 1537 1538 1538 1538 1539 1539 1540 1540 1541 1542 1543 1543 1544 1544 1544 1544 1544 1544 1544 1544 1545
1535 1535 1535 1535 1535 1536 1536 1537 1537 1537 1537 1537 1537 1537 1537 1537 1537 1537 1537 1537 1537 1537 1538 1538 1538 1539 1539 1540 1540 1541 1542 1543 1544 1545 1545 1545 1545 1545 1545 1545 1545 1545 1545
1536 1536 1536 1536 1537 1537 1537 1538 1538 1538 1538 1538 1538 1538 1537 1537 1537 1537 1538 1538 1538 1538 1538 1539 1539 1539 1540 1540 1541 1542 1543 1544 1544 1545 1546 1546 1546 1546 1546 1546 1546 1546 1546
1537 1538 1538 1538 1538 1538 1539 1539 1539 1539 1539 1539 1539 1539 1539 1538 1538 1538 1539 1539 1539 1539 1539 1539 1540 1540 1540 1541 1542 1543 1544 1545 1545 1546 1547 1547 1547 1547 1547 1547 1547 1547 1547
1539 1539 1539 1540 1540 1540 1540 1540 1540 1540 1540 1540 1540 1540 1540 1540 1540 1540 1540 1540 1540 1540 1540 1540 1540 1541 1541 1542 1543 1544 1545 1546 1546 1547 1548 1548 1548 1548 1548 1547 1547 1547 1547
1540 1541 1541 1541 1541 1542 1542 1542 1542 1542 1542 1542 1541 1541 1541 1541 1541 1541 1541 1541 1541 1541 1541 1541 1541 1542 1542 1542 1543 1544 1545 1546 1547 1548 1548 1548 1548 1548 1548 1548 1548 1548 1548
1542 1542 1542 1542 1543 1543 1543 1544 1544 1544 1543 1543 1543 1543 1543 1543 1543 1543 1542 1542 1542 1542 1542 1542 1542 1543 1543 1544 1544 1545 1546 1547 1548 1548 1549 1549 1549 1549 1549 1549 1549 1548 1548
1544 1544 1545 1545 1545 1545 1545 1546 1546 1545 1545 1545 1545 1545 1545 1545 1545 1544 1544 1544 1544 1543 1543 1543 1544 1544 1545 1546 1546 1547 1547 1548 1548 1549 1549 1549 1550 1550 1549 1549 1549 1549 1548
1545 1546 1547 1547 1548 1548 1547 1547 1547 1547 1547 1547 1547 1547 1547 1547 1547 1547 1546 1546 1545 1545 1545 1545 1545 1546 1547 1547 1548 1548 1549 1549 1549 1550 1550 1550 1550 1550 1550 1550 1549 1548 1548
1546 1547 1548 1548 1549 1550 1550 1549 1549 1550 1549 1549 1549 1549 1549 1549 1549 1549 1548 1548 1547 1547 1547 1547 1547 1548 1548 1549 1550 1550 1550 1551 1551 1551 1551 1551 1551 1551 1551 1550 1550 1549 1548
1548 1549 1550 1550 1551 1551 1551 1551 1551 1551 1551 1551 1551 1551 1550 1550 1550 1550 1550 1549 1549 1549 1549 1549 1549 1550 1550 1551 1552 1552 1552 1552 1552 1552 1552 1552 1552 1552 1551 1551 1551 1550 1548
1549 1550 1551 1552 1552 1552 1552 1553 1553 1552 1552 1552 1552 1552 1552 1551 1552 1552 1551 1551 1551 1551 1551 1551 1551 1552 1552 1553 1553 1553 1554 1554 1554 1553 1554 1554 1553 1553 1552 1552 1552 1551 1550
1550 1552 1552 1553 1553 1553 1554 1554 1554 1554 1554 1553 1553 1553 1553 1553 1553 1553 1553 1553 1553 1553 1553 1553 1553 1553 1554 1554 1555 1555 1555 1555 1555 1555 1555 1555 1555 1554 1554 1554 1553 1553 1552
1551 1553 1553 1554 1555 1555 1555 1555 1555 1555 1555 1555 1554 1555 1554 1554 1554 1554 1554 1554 1554 1554 1554 1554 1555 1555 1555 1556 1556 1557 1557 1557 1557 1557 1557 1556 1556 1556 1556 1556 1555 1555 1554
1552 1553 1554 1555 1556 1556 1556 1556 1557 1556 1556 1556 1556 1556 1556 1556 1556 1556 1555 1556 1556 1556 1556 1556 1556 1557 1557 1557 1558 1558 1559 1559 1559 1559 1559 1558 1558 1558 1557 1557 1557 1556 1556
1553 1554 1555 1556 1557 1557 1557 1558 1558 1557 1557 1557 1557 1557 1557 1557 1556 1557 1557 1557 1557 1557 1557 1558 1558 1558 1559 1559 1559 1560 1560 1561 1561 1561 1561 1560 1560 1559 1559 1559 1558 1558 1557
1553 1554 1556 1557 1558 1558 1559 1559 1559 1559 1559 1558 1558 1557 1557 1557 1557 1558 1558 1558 1558 1559 1559 1559 1559 1560 1560 1561 1561 1562 1562 1562 1563 1563 1563 1562 1562 1562 1561 1561 1560 1559 1559
1553 1555 1556 1558 1559 1559 1560 1560 1560 1560 1560 1559 1559 1558 1558 1558 1558 1559 1559 1559 1559 1560 1560 1560 1561 1561 1562 1563 1563 1563 1564 1564 1565 1565 1564 1564 1564 1564 1563 1563 1562 1561 1560
1554 1555 1557 1558 1559 1560 1560 1561 1561 1561 1561 1560 1560 1560 1559 1559 1560 1560 1560 1560 1560 1561 1561 1561 1562 1563 1564 1564 1564 1565 1566 1566 1566 1567 1566 1566 1566 1566 1565 1565 1564 1563 1562
1554 1555 1557 1558 1559 1560 1561 1561 1562 1562 1562 1561 1561 1561 1561 1561 1561 1561 1561 1561 1562 1562 1562 1563 1563 1564 1565 1566 1566 1566 1567 1569 1569 1569 1568 1568 1568 1568 1567 1566 1566 1565 1564
1553 1555 1557 1558 1559 1560 1561 1562 1562 1563 1563 1563 1562 1562 1562 1562 1562 1562 1562 1563 1563 1563 1564 1564 1565 1565 1566 1567 1567 1568 1568 1569 1570 1571 1571 1570 1570 1569 1569 1568 1567 1566 1565
1553 1555 1557 1558 1559 1560 1561 1562 1563 1563 1564 1564 1564 1564 1563 1563 1563 1563 1564 1564 1564 1565 1565 1566 1566 1567 1567 1568 1568 1569 1569 1569 1570 1571 1572 1572 1571 1571 1570 1569 1568 1567 1566
1552 1554 1556 1558 1559 1560 1561 1562 1563 1564 1565 1565 1565 1565 1565 1565 1565 1565 1565 1565 1566 1566 1566 1567 1567 1568 1568 1568 1569 1569 1570 1570 1570 1571 1572 1573 1573 1572 1571 1571 1570 1569 1568
1550 1553 1555 1557 1558 1560 1561 1562 1563 1564 1565 1565 1566 1566 1566 1566 1566 1566 1567 1567 1567 1567 1567 1568 1568 1568 1569 1569 1569 1570 1570 1571 1571 1571 1572 1573 1573 1573 1573 1572 1571 1570 1569